Location: Unspecified
(53.6186°N, 1.3184°W)
Time: 08:25:38
(UTC+01:00)

ISS - Pass Details

Date: 15 September 2017
Orbit: 401 x 407 km, 51.6° (Epoch: 23 September)

Event Time Altitude Azimuth Distance (km) Brightness Sun altitude
Exits shadow 04:19:23 53° 139° (SE) 507 -3.4 -20.0°
Drops below altitude 10° 04:22:10 10° 101° (ESE) 1,473 -0.4 -19.6°
Sets 04:24:16 0° 98° (E) 2,333 0.8 -19.4°
